TimeEST,TemperatureF,Dew PointF,Humidity,Sea Level PressureIn,VisibilityMPH,Wind Direction,Wind SpeedMPH,Gust SpeedMPH,PrecipitationIn,Events,Conditions,WindDirDegrees,DateUTC
12:14 AM,24.4,22.1,91,30.02,2.5,SE,9.2,-,N/A,Snow,Light Snow,140,2013-12-09 05:14:00
12:35 AM,24.6,22.3,91,30.00,3.0,SE,5.8,-,N/A,Snow,Light Snow,140,2013-12-09 05:35:00
12:54 AM,24.6,22.1,90,29.99,3.0,SE,6.9,-,N/A,Snow,Light Snow,130,2013-12-09 05:54:00
1:14 AM,24.6,22.1,90,29.96,4.0,SE,5.8,-,N/A,Snow,Light Snow,130,2013-12-09 06:14:00
1:35 AM,25.2,22.8,91,29.95,2.5,ESE,3.5,-,N/A,Snow,Light Snow,120,2013-12-09 06:35:00
1:54 AM,25.7,23.5,92,29.93,2.5,ESE,6.9,-,N/A,Snow,Light Snow,120,2013-12-09 06:54:00
2:14 AM,25.9,23.4,90,29.92,4.0,ESE,5.8,-,N/A,Snow,Light Snow,120,2013-12-09 07:14:00
2:35 AM,26.1,23.5,90,29.91,1.5,SE,9.2,-,N/A,Snow,Light Snow,130,2013-12-09 07:35:00
2:54 AM,26.1,23.9,92,29.92,1.8,SE,5.8,-,N/A,Snow,Light Snow,130,2013-12-09 07:54:00
3:14 AM,26.1,24.3,93,29.90,1.5,ESE,4.6,-,N/A,Snow,Snow,120,2013-12-09 08:14:00
3:35 AM,26.1,24.4,94,29.88,1.5,East,3.5,-,0.01,Snow,Light Snow,100,2013-12-09 08:35:00
3:54 AM,26.2,24.6,94,29.86,2.0,East,5.8,-,0.01,Snow,Light Snow,100,2013-12-09 08:54:00
4:15 AM,26.6,25.0,94,29.84,2.0,ESE,6.9,-,N/A,Snow,Light Snow,110,2013-12-09 09:15:00
4:35 AM,27.0,25.3,94,29.82,2.0,ESE,3.5,-,N/A,Snow,Light Snow,110,2013-12-09 09:35:00
4:54 AM,27.1,25.5,94,29.81,1.8,ESE,5.8,-,N/A,Snow,Light Snow,110,2013-12-09 09:54:00
5:15 AM,27.3,25.7,94,29.79,1.8,SE,4.6,-,N/A,Snow,Light Snow,130,2013-12-09 10:15:00
5:35 AM,27.3,25.7,94,29.78,2.0,ESE,3.5,-,N/A,Snow,Light Snow,120,2013-12-09 10:35:00
5:54 AM,27.1,25.9,95,29.76,1.2,SE,3.5,-,0.01,Snow,Light Snow,140,2013-12-09 10:54:00
6:15 AM,27.3,26.1,95,29.75,2.0,SSE,4.6,-,N/A,Snow,Light Snow,160,2013-12-09 11:15:00
6:35 AM,27.3,26.2,96,29.75,1.8,Calm,Calm,-,0.01,Snow,Light Snow,0,2013-12-09 11:35:00
6:54 AM,27.5,26.6,96,29.74,1.8,South,6.9,-,0.02,Snow,Light Snow,180,2013-12-09 11:54:00
7:15 AM,27.1,25.7,94,29.73,4.0,SSW,4.6,-,N/A,Snow,Light Snow,200,2013-12-09 12:15:00
7:35 AM,26.6,24.6,92,29.73,2.0,SW,6.9,-,N/A,Snow,Light Snow,230,2013-12-09 12:35:00
7:54 AM,26.1,23.9,92,29.73,4.0,SW,5.8,-,N/A,Snow,Light Snow,230,2013-12-09 12:54:00
8:15 AM,25.7,23.4,91,29.73,5.0,WSW,8.1,-,N/A,Snow,Light Snow,240,2013-12-09 13:15:00
8:34 AM,25.7,23.9,93,29.72,7.0,SW,6.9,-,N/A,Snow,Light Snow,230,2013-12-09 13:34:00
8:54 AM,25.7,23.9,93,29.72,7.0,SW,6.9,-,N/A,,Overcast,230,2013-12-09 13:54:00
9:15 AM,26.2,24.6,94,29.72,10.0,SW,4.6,-,N/A,,Overcast,230,2013-12-09 14:15:00
9:34 AM,26.4,24.8,94,29.71,7.0,WSW,8.1,-,N/A,Snow,Light Snow,240,2013-12-09 14:34:00
9:55 AM,27.3,25.7,94,29.71,7.0,WSW,9.2,-,N/A,Snow,Light Snow,250,2013-12-09 14:55:00
10:14 AM,28.2,25.9,91,29.72,7.0,West,12.7,20.7,N/A,Snow,Light Snow,270,2013-12-09 15:14:00
10:34 AM,28.4,25.7,90,29.72,10.0,WSW,12.7,23.0,N/A,,Overcast,250,2013-12-09 15:34:00
10:55 AM,27.3,23.9,87,29.73,7.0,WSW,16.1,25.3,N/A,,Overcast,250,2013-12-09 15:55:00
11:14 AM,27.1,23.4,86,29.73,10.0,West,16.1,25.3,N/A,,Overcast,260,2013-12-09 16:14:00
11:34 AM,26.4,21.4,81,29.73,10.0,West,19.6,32.2,N/A,,Overcast,260,2013-12-09 16:34:00
11:54 AM,26.4,21.2,81,29.73,10.0,West,24.2,28.8,N/A,,Overcast,260,2013-12-09 16:54:00
12:14 PM,27.1,20.3,75,29.72,10.0,WSW,12.7,27.6,N/A,,Overcast,250,2013-12-09 17:14:00
12:35 PM,27.1,19.4,73,29.70,10.0,West,13.8,20.7,N/A,,Mostly Cloudy,260,2013-12-09 17:35:00
12:54 PM,27.0,20.1,75,29.69,10.0,West,17.3,24.2,N/A,,Mostly Cloudy,270,2013-12-09 17:54:00
1:15 PM,26.6,21.2,80,29.68,4.0,West,21.9,26.5,N/A,Snow,Light Snow,260,2013-12-09 18:15:00
1:35 PM,26.1,21.9,84,29.68,2.5,West,21.9,27.6,N/A,Snow,Light Snow,260,2013-12-09 18:35:00
1:54 PM,25.7,22.5,88,29.68,1.0,West,20.7,27.6,N/A,Snow,Light Snow,260,2013-12-09 18:54:00
2:15 PM,25.5,23.7,93,29.67,0.2,WSW,12.7,23.0,N/A,Snow,Snow,250,2013-12-09 19:15:00
2:35 PM,26.1,23.0,88,29.68,0.8,West,23.0,32.2,N/A,Snow,Light Snow,260,2013-12-09 19:35:00
2:54 PM,25.3,22.6,89,29.68,0.5,WSW,18.4,32.2,N/A,Snow,Light Snow,250,2013-12-09 19:54:00
3:15 PM,25.0,21.0,85,29.68,1.0,WSW,23.0,36.8,N/A,Snow,Light Snow,250,2013-12-09 20:15:00
3:35 PM,24.3,20.7,86,29.69,0.5,WSW,23.0,34.5,N/A,Snow,Snow,250,2013-12-09 20:35:00
3:54 PM,23.7,21.2,90,29.70,0.5,WSW,20.7,33.4,N/A,Snow,Snow,250,2013-12-09 20:54:00
4:15 PM,23.7,21.0,89,29.70,0.5,West,21.9,32.2,N/A,Snow,Light Snow,260,2013-12-09 21:15:00
4:35 PM,23.4,19.9,87,29.72,0.5,WSW,20.7,33.4,N/A,Snow,Light Snow,250,2013-12-09 21:35:00
4:54 PM,23.0,19.0,85,29.73,0.8,WSW,19.6,38.0,N/A,Snow,Light Snow,250,2013-12-09 21:54:00
5:15 PM,23.0,18.7,84,29.73,1.2,WSW,20.7,35.7,N/A,Snow,Light Snow,250,2013-12-09 22:15:00
5:34 PM,22.8,18.0,82,29.73,1.5,West,26.5,39.1,N/A,Snow,Light Snow,260,2013-12-09 22:34:00
5:54 PM,22.5,17.2,80,29.74,1.8,WSW,26.5,41.4,N/A,Snow,Light Snow,250,2013-12-09 22:54:00
6:15 PM,20.3,17.8,90,29.75,0.2,WSW,17.3,42.6,N/A,Snow,Heavy Snow,250,2013-12-09 23:15:00
6:34 PM,20.7,13.3,73,29.75,0.5,WSW,25.3,39.1,N/A,Snow,Snow,250,2013-12-09 23:34:00
6:54 PM,20.7,11.7,68,29.77,1.2,West,29.9,43.7,N/A,Snow,Light Snow,260,2013-12-09 23:54:00
7:15 PM,19.4,15.4,85,29.77,0.8,West,31.1,41.4,N/A,Snow,Light Snow,270,2013-12-10 00:15:00
7:34 PM,18.5,15.3,87,29.78,0.5,West,25.3,35.7,N/A,Snow,Snow,260,2013-12-10 00:34:00
7:54 PM,17.6,10.9,75,29.79,2.0,West,27.6,38.0,N/A,Snow,Light Snow,280,2013-12-10 00:54:00
8:15 PM,16.3,9.7,75,29.80,2.0,West,28.8,36.8,N/A,Snow,Light Snow,280,2013-12-10 01:15:00
8:34 PM,15.8,9.7,77,29.81,2.0,West,23.0,34.5,N/A,Snow,Light Snow,280,2013-12-10 01:34:00
8:54 PM,15.4,9.5,77,29.82,2.5,West,25.3,34.5,N/A,Snow,Light Snow,280,2013-12-10 01:54:00
9:15 PM,14.9,8.2,75,29.83,3.0,West,20.7,33.4,N/A,Snow,Light Snow,270,2013-12-10 02:15:00
9:34 PM,14.5,8.6,77,29.84,2.0,West,20.7,41.4,N/A,Snow,Light Snow,280,2013-12-10 02:34:00
9:54 PM,14.4,8.4,77,29.85,3.0,West,24.2,33.4,N/A,Snow,Light Snow,280,2013-12-10 02:54:00
10:15 PM,14.0,7.2,74,29.86,5.0,West,20.7,32.2,N/A,,Haze,280,2013-12-10 03:15:00
10:34 PM,12.9,5.0,71,29.88,7.0,West,25.3,33.4,N/A,,Overcast,280,2013-12-10 03:34:00
10:55 PM,12.2,4.5,71,29.89,7.0,West,23.0,33.4,N/A,,Overcast,270,2013-12-10 03:55:00
11:14 PM,11.3,3.7,72,29.90,7.0,West,23.0,33.4,N/A,,Overcast,280,2013-12-10 04:14:00
11:34 PM,11.3,4.6,75,29.91,10.0,West,20.7,28.8,N/A,,Overcast,270,2013-12-10 04:34:00
11:55 PM,10.4,4.1,76,29.92,10.0,West,15.0,31.1,N/A,,Overcast,280,2013-12-10 04:55:00